156P/Russell-LINEAR (2020)

Japanese version
Home page
Updated on December 18, 2022

---------------------------------------------------------------------

* Profile

* Pictures

* Orbital Elements

Epoch 2022 Jan. 21.0 TT = JDT 2459600.5
T 2020 Nov. 17.93322 TT                                 Rudenko
q   1.3328695            (2000.0)            P               Q
n   0.15303730     Peri.    0.45139     +0.81121543     -0.55896385
a   3.4615546      Node    35.35387     +0.53556093     +0.59232679
e   0.6149506      Incl.   17.26422     +0.23474245     +0.58026579
P   6.44
From 2425 observations 1986 Sept. 3-2022 Mar. 6, mean residual 0".7.

* Finding Charts

* Magnitudes Graph

        m1 = 16.8 + 5 log d +   5.0 log r          [   ,-60]  (             - 2020 Sept.18)
        m1 = -3.5 + 5 log d + 120   log r          [-60,  0]  (2020 Sept.18 - 2020 Nov. 17)
        m1 =  9.5 + 5 log d +  15.0 log r(t - 25)  [  0,   ]  (2020 Nov. 17 -             )

---------------------------------------------------------------------

The orbital elements are published on M.P.E.C. 2022-E133.
The charts are made with StellaNavigator Ver.10 (AstroArts).
The magnitudes graphs are made with Comet for Windows.

---------------------------------------------------------------------

Copyright(C) Seiichi Yoshida (comet@aerith.net). All rights reserved.